Weather in Tugayevo

Russia / Chuvash Republic     55°11′55″N   47°20′46″E
temp.,
°C
wind,
m/s
gust,
m/s
humid.,
%
clouds,
%
prec.,
mm/h
press.,
hPa
HPBL,
m
7 march, sun
sun700:00−14w229732 0.0 101221
03:00−15wsw239858 0.1 101226
06:00−15wsw339783 0.0 101144
09:00−12sw469275 0.1 1011246
12:00−8sw598666 0.0 1008683
15:00−7ssw6118281 0.0 1005849
18:00−7ssw71393100 0.9 10011008
21:00−6ssw71493100 2.2 9971037
8 march, mon
mon800:00−5ssw71493100 0.8 994856
03:00−7w51286100 1.7 995575
06:00−12wsw4108854 0.0 996216
09:00−8sw5118776 0.0 998449
12:00−6sw61092100 0.6 998827
15:00−4wsw6984100 0.9 9971073
18:00−6sw5128899 0.1 998589
21:00−9w349494 0.4 100075
9 march, tue
tue900:00−13wnw36950 0.0 100296
03:00−16w359813 0.0 1004100
06:00−16wnw359791 0.1 1007105
09:00−15nw469496 0.1 1009326
12:00−13nw4689100 0.0 1010519
15:00−12nw468799 0.1 1012657
18:00−16wnw3795100 0.1 1013251
21:00−17wnw3697100 0.1 1015128
10 march, wed
wed1000:00−19wnw369898 0.1 1016139
03:00−21nw359997 0.1 1017100
06:00−23nw369999 0.1 1018144
09:00−22nnw4796100 0.1 1019318
12:00−20nnw469196 0.0 1021480
15:00−19nnw478993 0.0 1022508
18:00−23nw359690 0.0 102383
21:00−24wnw349845 0.0 102477
11 march, thu
thu1100:00−25w369815 0.0 1025113
03:00−25w489714 0.0 1026144
06:00−25w489988 0.0 1026161
09:00−21w489691 0.0 1027255
12:00−15w579167 0.0 1027335
15:00−13w479146 0.0 1027331
18:00−17w479518 0.0 1028130
21:00−20w35968 0.0 102979